SCP
-0 -0 0 0 0 0 0 0 0 0 0 0 0 0 0 0 0 0 0 -0 -0 -0 -0 -0 -0 -0 -0 0 0 0 0 0 0 0 0 0 0 0
-0 0 0 0 0 0 0 0 0 0 0 0 0 0 0 0 0 0 0 -0 -0 -0 -0 -0 -0 -0 -0 0 0 -0 0 0 0 0 0 0 0 0
-0 0 0 0 0 0 0 0 0 0 0 0 0 0 0 0 0 0 0 0 0 -0 -0 -0 -0 0 0 -0 -0 -0 -0 0 0 0 0 0 0 0
-0 0 0 0 0 0 0 0 0 0 0 0 0 0 0 0 0 0 0 0 0 -0 -0 -0 -0 -0 -0 -0 -0 -0 0 0 0 0 0 0 0 0
0 0 0 0 0 0 0 0 0 0 0 0 0 0 0 0 0 0 0 0 0 0 -0 -0 -0 -0 -0 -0 -0 -0 0 0 0 0 0 0 0 0
0 0 0 0 0 0 0 0 0 0 0 0 0 0 0 0 0 0 0 0 0 0 0 0 -0 -0 -0 -0 -0 0 0 0 0 0 0 0 0 0
0 0 0 0 0 0 0 -0 0 0 0 0 0 0 0 0 0 0 0 0 0 0 0 0 0 -0 -0 -0 0 0 0 0 0 0 0 0 0 0
0 -0 0 0 -0 -0 -0 0 -0 0 0 0 0 0 0 0 0 0 0 0 0 0 0 0 0 0 0 0 0 0 0 0 0 0 0 0 0 0
-0 -0 -0 0 0 0 0 0 0 0 0 0 0 0 0 0 0 0 0 0 0 0 0 0 0 0 0 0 0 0 0 0 0 0 0 0 0 0
-0 -0 -0 -0 -0 0 0 0 0 0 0 0 0 0 0 0 0 0 0 0 0 0 0 0 0 0 0 0 0 0 0 0 0 0 0 0 0 0
-0 -0 -0 0 0 -0 -0 -0 -0 -0 -0 0 0 0 0 0 0 0 0 0 0 0 0 0 0 0 0 0 0 0 0 0 0 0 0 0 0 0
-0 -0 -0 0 -0 -0 -0 -0 -0 0 0 0 0 0 0 0 0 0 0 0 0 0 0 0 0 0 0 0 0 0 0 0 0 0 0 0 0 0
0 0 0 -0 -0 -0 -0 0 0 -0 0 0 0 0 0 0 0 0 0 0 0 0 0 0 0 0 0 0 0 0 0 0 0 0 0 0 0 0
0 0 0 0 0 -0 0 -0 -0 0 0 0 0 0 0 0 0 0 0 0 0 0 0 0 0 0 0 0 0 0 0 0 0 0 0 0 0 0
0 0 0 0 0 0 0 -0 0 0 0 0 0 0 0 0 0 0 0 0 0 0 0 0 0 0 0 0 0 0 0 0 0 0 0 0 0 0
0 0 0 0 0 0 0 0 0 0 0 0 0 0 0 0 0 0 0 0 0 0 0 0 0 0 0 0 0 0 0 0 0 0 0 0 0 0
0 0 0 0 0 0 0 0 0 0 0 0 0 0 0 0 0 0 0 0 0 0 0 0 0 0 0 0 0 0 0 0 0 0 0 0 0 0
0 0 0 0 0 0 0 0 0 0 0 0 0 0 0 0 0 0 0 0 0 0 0 0 0 0 0 0 0 0 0 0 0 0 0 0 0 0
0 0 0 0 0 0 0 0 0 0 0 0 0 0 0 0 0 0 0 0 0 0 0 0 0 0 0 0 0 0 0 0 0 0 0 0 0 0
0 0 0 0 0 0 0 0 0 0 0 0 0 0 0 0 0 0 0 0 0 0 0 0 0 0 0 0 0 0 0 0 0 0 0 0 0 0
0 0 0 0 0 0 0 0 0 0 0 0 0 0 0 0 0 0 0 0 0 0 0 0 0 0 0 0 0 0 0 0 0 0 0 0 0 0
0 0 0 0 0 0 0 0 0 0 0 0 0 0 0 0 0 0 0 0 0 0 0 0 0 0 0 0 0 0 0 0 0 0 0 0 0 0
0 0 0 0 0 0 0 0 0 0 0 0 0 0 0 0 0 0 0 0 0 0 0 0 0 0 0 0 0 0 0 0 0 0 0 0 0 0
Wind_Speed_500mb
23 38 42 47 57 63 75 64 73 53 53 55 51 49 41 37 38 33 25 20 15 7 4 6 9 7 14 22 28 29 30 32 33 31 29 33 37 48
15 23 32 47 68 74 75 59 37 60 47 45 50 44 41 40 34 29 27 20 8 6 2 4 6 12 21 28 26 26 28 27 25 30 29 29 29 28
25 21 34 53 64 67 55 29 30 60 59 49 50 42 38 33 30 24 18 12 11 5 2 5 14 23 23 23 23 22 19 22 25 26 29 28 29 35
32 34 49 60 57 53 45 27 28 44 51 54 51 45 38 30 28 24 22 18 10 4 5 12 17 14 18 18 14 19 22 24 24 28 24 33 35 33
34 38 44 45 47 43 38 26 25 36 39 48 53 45 40 33 31 28 24 19 13 1 5 7 8 13 13 14 17 18 19 26 24 29 37 37 36 41
42 46 37 38 43 34 33 35 31 28 36 46 44 46 44 41 32 32 30 20 12 7 3 6 10 9 8 12 14 18 25 26 32 36 36 36 38 40
49 27 31 32 34 33 34 37 30 29 36 41 48 53 50 46 41 37 29 24 17 8 5 2 3 9 10 12 18 23 25 30 32 34 33 34 36 36
43 33 33 41 42 36 31 25 19 17 26 38 45 51 51 46 42 37 31 26 20 16 10 8 6 7 12 17 25 26 27 28 30 30 31 34 32 32
38 44 48 43 40 37 34 24 18 19 20 21 33 47 47 39 36 36 30 24 18 23 19 12 10 8 14 21 24 26 25 25 29 28 29 30 29 31
41 39 38 38 36 35 30 23 21 24 23 24 25 27 32 33 31 28 31 29 24 29 24 17 18 12 14 19 22 22 20 23 23 26 28 28 30 32
31 33 29 29 32 32 27 26 25 28 30 30 33 33 35 38 37 39 43 41 37 35 32 20 25 19 19 18 18 17 17 17 20 24 24 25 29 30
39 37 31 30 29 29 26 25 28 29 30 31 32 36 38 40 39 38 28 31 31 30 33 28 30 24 17 19 17 13 13 14 20 21 20 22 25 25
42 38 36 34 32 28 28 27 25 28 29 28 30 34 37 37 38 37 38 30 28 19 14 27 34 29 16 26 18 13 10 11 16 18 21 23 25 24
41 37 38 33 31 32 33 37 33 31 31 31 32 34 37 38 38 35 34 33 31 26 16 24 26 21 25 23 16 12 8 8 12 14 18 24 26 26
31 31 36 37 36 40 40 43 39 38 35 32 33 35 35 33 32 31 33 35 34 30 26 24 25 27 27 15 9 11 8 6 7 11 14 18 22 25
47 46 43 44 47 47 51 50 44 37 34 31 30 32 33 35 35 34 36 36 34 34 35 33 32 27 23 18 13 8 8 3 4 8 14 21 24 25
53 53 54 54 57 57 57 54 53 47 42 40 39 38 38 38 39 39 38 40 39 43 45 42 39 34 30 19 14 12 9 6 3 9 14 17 22 25
62 64 63 61 58 60 62 60 55 49 47 44 43 40 40 42 43 44 42 40 42 48 47 43 38 35 30 23 18 15 9 5 2 8 12 15 20 22
63 65 61 63 62 62 65 61 56 51 46 45 43 43 44 44 46 47 46 47 50 51 47 42 39 32 26 23 16 17 13 8 1 5 10 14 18 17
56 60 67 68 72 74 67 60 54 51 49 47 47 47 47 47 50 51 51 56 58 57 51 45 39 32 25 17 15 17 15 10 4 5 9 13 17 18
57 55 64 66 70 66 57 55 54 52 50 51 51 52 51 52 54 54 54 60 60 57 52 45 41 34 29 25 21 22 16 10 6 5 8 11 13 13
64 63 58 63 64 64 55 58 58 56 56 57 55 56 55 56 56 57 58 64 64 56 51 46 40 36 30 26 21 20 17 12 9 8 7 7 8 9
70 71 70 70 69 70 66 64 60 59 59 58 57 58 57 60 60 60 59 63 65 64 59 49 43 38 32 30 25 22 18 14 11 10 8 8 9 9
Wind_Direction_500mb
139 165 190 186 175 165 156 157 150 131 128 128 125 138 144 151 155 156 149 153 127 100 43 59 59 43 31 15 10 5 355 348 348 2 16 19 28 33
145 162 181 174 175 159 156 154 167 166 140 139 140 142 149 152 157 168 162 151 131 110 83 86 70 24 17 9 355 348 342 352 13 26 30 30 42 30
141 143 159 171 164 162 162 153 170 174 152 145 146 150 153 162 155 160 157 162 142 160 104 79 24 22 7 357 338 346 18 30 22 25 36 33 25 35
141 153 167 165 162 170 167 182 166 189 184 162 156 159 161 166 168 174 160 151 161 114 54 29 11 13 358 329 20 39 29 28 37 40 37 46 44 47
153 152 167 176 170 175 176 175 167 171 187 180 169 170 167 172 173 168 166 170 156 227 45 360 16 353 341 36 34 34 40 44 50 55 54 54 52 49
149 152 160 168 177 178 182 168 163 152 164 174 179 179 179 176 184 180 169 160 146 120 75 19 357 350 37 35 34 44 55 67 64 62 59 55 51 46
164 157 160 165 179 159 159 156 167 172 181 184 189 186 184 182 185 181 175 162 143 149 109 81 18 54 54 56 56 70 75 70 67 62 57 53 46 39
178 169 157 157 154 154 166 172 178 200 198 199 202 198 193 191 188 187 186 174 170 175 162 150 110 91 81 68 81 82 75 71 65 56 48 44 37 32
161 163 155 156 162 172 177 185 199 208 207 218 200 201 197 195 192 189 190 194 202 177 173 171 142 113 79 89 93 84 75 64 57 47 41 35 30 27
160 164 165 167 176 185 189 203 199 183 175 169 183 187 189 190 190 196 193 193 189 179 184 183 167 143 110 106 95 81 71 59 52 43 33 26 24 22
175 173 178 187 187 192 202 203 195 177 172 164 161 169 181 188 192 192 196 198 190 188 198 207 176 168 142 123 99 88 67 55 48 40 30 24 24 21
194 193 197 198 199 196 199 198 191 182 177 171 172 177 181 184 192 201 215 207 205 199 207 202 186 167 145 145 128 106 78 54 49 39 35 30 28 23
203 206 197 193 194 195 194 188 190 189 184 183 182 183 186 191 193 195 201 215 222 235 233 200 191 187 175 166 151 126 97 63 51 35 30 31 33 24
206 204 199 199 201 199 194 188 193 197 195 191 190 192 193 195 198 201 203 206 211 224 228 198 197 196 180 169 162 155 121 79 52 32 27 27 24 19
212 213 216 216 211 202 199 193 196 199 203 199 198 200 199 201 202 203 202 205 211 214 202 190 175 171 169 181 170 158 161 103 54 37 30 28 23 18
224 228 228 222 219 213 199 196 200 202 212 212 209 209 206 205 205 207 208 207 205 194 183 175 167 175 182 180 177 181 162 129 54 35 20 17 10 9
223 223 224 222 222 213 204 199 200 200 208 211 209 211 209 207 204 204 203 205 200 187 178 172 173 178 175 180 184 171 152 130 64 22 11 5 1 4
230 228 221 222 216 210 206 206 203 206 211 214 211 213 212 210 208 203 201 201 198 188 183 181 182 180 174 174 177 181 164 141 49 7 356 356 355 358
226 229 225 221 214 212 208 211 210 212 215 218 218 216 212 211 209 205 202 196 191 190 186 185 187 186 182 180 186 191 186 180 239 335 344 344 342 350
227 227 225 222 217 212 211 211 212 215 218 219 221 218 217 216 211 207 205 197 192 190 189 189 189 188 196 207 205 198 192 200 227 319 324 327 333 339
228 227 224 219 216 212 213 215 217 223 224 224 223 220 219 219 215 212 208 201 198 196 193 193 191 200 204 204 208 197 200 215 228 269 301 313 324 321
233 227 223 218 209 210 211 218 221 226 227 227 225 222 222 221 219 215 211 207 201 201 196 197 201 205 207 211 208 204 204 213 231 251 281 304 313 306
229 225 219 214 214 213 217 221 225 229 229 230 226 224 226 222 217 215 214 210 205 200 202 206 206 204 206 206 211 210 211 220 237 260 288 291 300 314
Wind_Speed_850mb
23 38 42 47 57 63 75 64 73 53 53 55 51 49 41 37 38 33 25 20 15 7 4 6 9 7 14 22 28 29 30 32 33 31 29 33 37 48
15 23 32 47 68 74 75 59 37 60 47 45 50 44 41 40 34 29 27 20 8 6 2 4 6 12 21 28 26 26 28 27 25 30 29 29 29 28
25 21 34 53 64 67 55 29 30 60 59 49 50 42 38 33 30 24 18 12 11 5 2 5 14 23 23 23 23 22 19 22 25 26 29 28 29 35
32 34 49 60 57 53 45 27 28 44 51 54 51 45 38 30 28 24 22 18 10 4 5 12 17 14 18 18 14 19 22 24 24 28 24 33 35 33
34 38 44 45 47 43 38 26 25 36 39 48 53 45 40 33 31 28 24 19 13 1 5 7 8 13 13 14 17 18 19 26 24 29 37 37 36 41
42 46 37 38 43 34 33 35 31 28 36 46 44 46 44 41 32 32 30 20 12 7 3 6 10 9 8 12 14 18 25 26 32 36 36 36 38 40
49 27 31 32 34 33 34 37 30 29 36 41 48 53 50 46 41 37 29 24 17 8 5 2 3 9 10 12 18 23 25 30 32 34 33 34 36 36
43 33 33 41 42 36 31 25 19 17 26 38 45 51 51 46 42 37 31 26 20 16 10 8 6 7 12 17 25 26 27 28 30 30 31 34 32 32
38 44 48 43 40 37 34 24 18 19 20 21 33 47 47 39 36 36 30 24 18 23 19 12 10 8 14 21 24 26 25 25 29 28 29 30 29 31
41 39 38 38 36 35 30 23 21 24 23 24 25 27 32 33 31 28 31 29 24 29 24 17 18 12 14 19 22 22 20 23 23 26 28 28 30 32
31 33 29 29 32 32 27 26 25 28 30 30 33 33 35 38 37 39 43 41 37 35 32 20 25 19 19 18 18 17 17 17 20 24 24 25 29 30
39 37 31 30 29 29 26 25 28 29 30 31 32 36 38 40 39 38 28 31 31 30 33 28 30 24 17 19 17 13 13 14 20 21 20 22 25 25
42 38 36 34 32 28 28 27 25 28 29 28 30 34 37 37 38 37 38 30 28 19 14 27 34 29 16 26 18 13 10 11 16 18 21 23 25 24
41 37 38 33 31 32 33 37 33 31 31 31 32 34 37 38 38 35 34 33 31 26 16 24 26 21 25 23 16 12 8 8 12 14 18 24 26 26
31 31 36 37 36 40 40 43 39 38 35 32 33 35 35 33 32 31 33 35 34 30 26 24 25 27 27 15 9 11 8 6 7 11 14 18 22 25
47 46 43 44 47 47 51 50 44 37 34 31 30 32 33 35 35 34 36 36 34 34 35 33 32 27 23 18 13 8 8 3 4 8 14 21 24 25
53 53 54 54 57 57 57 54 53 47 42 40 39 38 38 38 39 39 38 40 39 43 45 42 39 34 30 19 14 12 9 6 3 9 14 17 22 25
62 64 63 61 58 60 62 60 55 49 47 44 43 40 40 42 43 44 42 40 42 48 47 43 38 35 30 23 18 15 9 5 2 8 12 15 20 22
63 65 61 63 62 62 65 61 56 51 46 45 43 43 44 44 46 47 46 47 50 51 47 42 39 32 26 23 16 17 13 8 1 5 10 14 18 17
56 60 67 68 72 74 67 60 54 51 49 47 47 47 47 47 50 51 51 56 58 57 51 45 39 32 25 17 15 17 15 10 4 5 9 13 17 18
57 55 64 66 70 66 57 55 54 52 50 51 51 52 51 52 54 54 54 60 60 57 52 45 41 34 29 25 21 22 16 10 6 5 8 11 13 13
64 63 58 63 64 64 55 58 58 56 56 57 55 56 55 56 56 57 58 64 64 56 51 46 40 36 30 26 21 20 17 12 9 8 7 7 8 9
70 71 70 70 69 70 66 64 60 59 59 58 57 58 57 60 60 60 59 63 65 64 59 49 43 38 32 30 25 22 18 14 11 10 8 8 9 9
Wind_Direction_850mb
139 165 190 186 175 165 156 157 150 131 128 128 125 138 144 151 155 156 149 153 127 100 43 59 59 43 31 15 10 5 355 348 348 2 16 19 28 33
145 162 181 174 175 159 156 154 167 166 140 139 140 142 149 152 157 168 162 151 131 110 83 86 70 24 17 9 355 348 342 352 13 26 30 30 42 30
141 143 159 171 164 162 162 153 170 174 152 145 146 150 153 162 155 160 157 162 142 160 104 79 24 22 7 357 338 346 18 30 22 25 36 33 25 35
141 153 167 165 162 170 167 182 166 189 184 162 156 159 161 166 168 174 160 151 161 114 54 29 11 13 358 329 20 39 29 28 37 40 37 46 44 47
153 152 167 176 170 175 176 175 167 171 187 180 169 170 167 172 173 168 166 170 156 227 45 360 16 353 341 36 34 34 40 44 50 55 54 54 52 49
149 152 160 168 177 178 182 168 163 152 164 174 179 179 179 176 184 180 169 160 146 120 75 19 357 350 37 35 34 44 55 67 64 62 59 55 51 46
164 157 160 165 179 159 159 156 167 172 181 184 189 186 184 182 185 181 175 162 143 149 109 81 18 54 54 56 56 70 75 70 67 62 57 53 46 39
178 169 157 157 154 154 166 172 178 200 198 199 202 198 193 191 188 187 186 174 170 175 162 150 110 91 81 68 81 82 75 71 65 56 48 44 37 32
161 163 155 156 162 172 177 185 199 208 207 218 200 201 197 195 192 189 190 194 202 177 173 171 142 113 79 89 93 84 75 64 57 47 41 35 30 27
160 164 165 167 176 185 189 203 199 183 175 169 183 187 189 190 190 196 193 193 189 179 184 183 167 143 110 106 95 81 71 59 52 43 33 26 24 22
175 173 178 187 187 192 202 203 195 177 172 164 161 169 181 188 192 192 196 198 190 188 198 207 176 168 142 123 99 88 67 55 48 40 30 24 24 21
194 193 197 198 199 196 199 198 191 182 177 171 172 177 181 184 192 201 215 207 205 199 207 202 186 167 145 145 128 106 78 54 49 39 35 30 28 23
203 206 197 193 194 195 194 188 190 189 184 183 182 183 186 191 193 195 201 215 222 235 233 200 191 187 175 166 151 126 97 63 51 35 30 31 33 24
206 204 199 199 201 199 194 188 193 197 195 191 190 192 193 195 198 201 203 206 211 224 228 198 197 196 180 169 162 155 121 79 52 32 27 27 24 19
212 213 216 216 211 202 199 193 196 199 203 199 198 200 199 201 202 203 202 205 211 214 202 190 175 171 169 181 170 158 161 103 54 37 30 28 23 18
224 228 228 222 219 213 199 196 200 202 212 212 209 209 206 205 205 207 208 207 205 194 183 175 167 175 182 180 177 181 162 129 54 35 20 17 10 9
223 223 224 222 222 213 204 199 200 200 208 211 209 211 209 207 204 204 203 205 200 187 178 172 173 178 175 180 184 171 152 130 64 22 11 5 1 4
230 228 221 222 216 210 206 206 203 206 211 214 211 213 212 210 208 203 201 201 198 188 183 181 182 180 174 174 177 181 164 141 49 7 356 356 355 358
226 229 225 221 214 212 208 211 210 212 215 218 218 216 212 211 209 205 202 196 191 190 186 185 187 186 182 180 186 191 186 180 239 335 344 344 342 350
227 227 225 222 217 212 211 211 212 215 218 219 221 218 217 216 211 207 205 197 192 190 189 189 189 188 196 207 205 198 192 200 227 319 324 327 333 339
228 227 224 219 216 212 213 215 217 223 224 224 223 220 219 219 215 212 208 201 198 196 193 193 191 200 204 204 208 197 200 215 228 269 301 313 324 321
233 227 223 218 209 210 211 218 221 226 227 227 225 222 222 221 219 215 211 207 201 201 196 197 201 205 207 211 208 204 204 213 231 251 281 304 313 306
229 225 219 214 214 213 217 221 225 229 229 230 226 224 226 222 217 215 214 210 205 200 202 206 206 204 206 206 211 210 211 220 237 260 288 291 300 314